Location: Newark
(45.9456°N, 15.4064°E)
Time: 00:42:08
(UTC+00:00)

Vanguard 3 - Pass Details

Date: 26 January 2020
Orbit: 508 x 3263 km, 33.3° (Epoch: 20 February)

Event Time Altitude Azimuth Distance (km) Brightness Sun altitude
Rises 19:04:45 0° 263° (W) 7,229 13.0 -33.0°
Reaches altitude 10° 19:09:55 10° 259° (WSW) 6,175 12.3 -33.9°
Maximum altitude 19:27:47 50° 192° (SSW) 3,178 9.9 -36.9°
Enters shadow 19:31:11 45° 161° (SSE) 3,127 9.7 -37.5°
Drops below altitude 10° 19:39:53 10° 122° (ESE) 4,303 - -39.0°
Sets 19:42:47 0° 117° (ESE) 4,976 - -39.5°
